Waarnemingen

Advertentie
Mijn weer
Harsfjarden, Zweden (2489): temperatuur & dauwpunt: 13.11.2017 18:00:00 - 19.11.2017 18:00:00 (CET)Harsfjarden, Zweden (2489): windsnelheid & windstoten: 13.11.2017 18:00:00 - 19.11.2017 18:00:00 (CET)Harsfjarden, Zweden (2489): windrichting: 13.11.2017 18:00:00 - 19.11.2017 18:00:00 (CET)Harsfjarden, Zweden (2489): luchtdruk: 13.11.2017 18:00:00 - 19.11.2017 18:00:00 (CET)Harsfjarden, Zweden (2489): zicht: 13.11.2017 18:00:00 - 19.11.2017 18:00:00 (CET)Harsfjarden, Zweden (2489): neerslag: 13.11.2017 18:00:00 - 19.11.2017 18:00:00 (CET)
Datum & Tijd tt [°C] td [°C] ff [km/u] ff [kn] fx [km/u] fx [kn] dd ppp [hPa] vv [km] rr [mm]
19.11.2017 18:00:00 -2,7 -4,3 11 6 22 12 NNW 1000,8 50 0,0
19.11.2017 17:00:00 -2,0 -3,9 14 8 25 14 NNW 1000,6 50 0,0
19.11.2017 16:00:00 -1,2 -3,2 14 8 25 14 NNW 1000,1 50 0,0
19.11.2017 15:00:00 -0,4 -2,5 11 6 25 14 N 999,6 50 0,0
19.11.2017 14:00:00 0,1 -1,7 11 6 29 16 N 999,1 45 0,0
19.11.2017 13:00:00 0,4 -1,4 14 8 25 14 N 998,7 50 0,0
19.11.2017 12:00:00 0,8 -0,5 14 8 25 14 N 998,1 50 0,0
19.11.2017 11:00:00 0,9 0,0 11 6 22 12 N 997,8 50 0,0
19.11.2017 10:00:00 0,9 0,8 11 6 22 12 N 997,2 30 0,3
19.11.2017 09:00:00 0,7 0,7 11 6 22 12 N 996,8 12 0,0
19.11.2017 08:00:00 0,6 0,6 14 8 22 12 N 996,2 35 0,0
19.11.2017 07:00:00 0,5 0,5 11 6 14 8 N 995,6 13 0,0
19.11.2017 06:00:00 0,1 0,1 11 6 18 10 N 995,2 7 0,0
19.11.2017 05:00:00 -0,4 -0,4 14 8 18 10 N 995,0 21 0,0
19.11.2017 04:00:00 -1,1 -1,2 4 2 4 2 N 994,8 15 0,0
19.11.2017 03:00:00 -1,8 -1,8 4 2 4 2 N 994,7 13 0,0
19.11.2017 02:00:00 -1,5 -1,5 0 0 4 2 N 994,5 15 0,0
19.11.2017 01:00:00 -0,6 -0,7 4 2 7 4 N 994,5 24 0,0
19.11.2017 00:00:00 -0,6 -0,6 4 2 7 4 NNW 994,5 30 0,0
18.11.2017 23:00:00 -0,5 -0,5 0 0 4 2 N 994,5 15 0,0
18.11.2017 22:00:00 -0,8 -0,8 0 0 4 2 N 994,9 23 0,0
18.11.2017 21:00:00 -0,9 -0,9 4 2 4 2 N 994,6 30 0,0
18.11.2017 20:00:00 -0,5 -0,5 4 2 4 2 NW 994,5 18 0,0
18.11.2017 19:00:00 -0,5 -0,6 0 0 7 4 N 994,3 2,6 0,0
18.11.2017 18:00:00 0,8 0,7 4 2 7 4 WZW 994,3 30 0,0
18.11.2017 17:00:00 0,9 0,5 4 2 7 4 W 994,4 26 0,0
18.11.2017 16:00:00 2,5 1,9 4 2 11 6 W 994,6 50 0,0
18.11.2017 15:00:00 3,6 2,7 7 4 11 6 W 994,9 50 0,0
18.11.2017 14:00:00 3,8 3,1 4 2 18 10 W 995,2 50 0,0
18.11.2017 13:00:00 4,0 3,1 7 4 40 21 W 995,7 50 1,0
18.11.2017 12:00:00 7,0 4,0 22 12 40 21 ZZW 995,7 50 0,0
18.11.2017 11:00:00 6,6 3,9 14 8 32 18 ZW 996,7 45 0,0
18.11.2017 10:00:00 6,4 3,7 22 12 36 19 ZW 997,5 45 0,0
18.11.2017 09:00:00 6,4 3,7 22 12 32 18 ZW 998,2 45 0,0
18.11.2017 08:00:00 6,3 3,6 25 14 43 23 ZW 998,7 45 0,0
18.11.2017 07:00:00 6,5 4,2 18 10 32 18 ZW 999,2 40 0,0
18.11.2017 06:00:00 6,6 3,9 18 10 29 16 ZW 1000,0 45 0,0
18.11.2017 05:00:00 6,5 3,6 18 10 32 18 ZW 1000,9 40 0,0
18.11.2017 04:00:00 6,6 3,7 18 10 32 18 ZW 1001,7 26 0,0
18.11.2017 03:00:00 6,8 3,8 18 10 32 18 ZW 1002,8 35 0,0
18.11.2017 02:00:00 6,6 3,6 18 10 32 18 ZW 1003,6 45 0,0
18.11.2017 01:00:00 6,9 3,5 18 10 36 19 ZW 1004,2 45 0,0
18.11.2017 00:00:00 6,9 3,3 14 8 32 18 ZW 1004,6 40 0,0
17.11.2017 23:00:00 7,1 3,5 18 10 32 18 ZW 1005,4 35 0,0
17.11.2017 22:00:00 6,6 3,4 18 10 32 18 WZW 1005,4 30 0,0
17.11.2017 21:00:00 6,3 3,5 14 8 32 18 WZW 1006,0 28 0,0
17.11.2017 20:00:00 6,3 3,3 14 8 29 16 ZW 1006,0 30 0,0
17.11.2017 19:00:00 6,6 3,0 18 10 32 18 WZW 1006,5 30 0,0
17.11.2017 18:00:00 6,7 3,1 22 12 36 19 WZW 1006,7 30 0,0
17.11.2017 17:00:00 6,3 2,6 22 12 36 19 ZW 1006,8 35 0,0
17.11.2017 16:00:00 5,8 1,9 18 10 36 19 WZW 1007,2 40 0,0
17.11.2017 15:00:00 6,1 1,2 22 12 36 19 WZW 1007,3 45 0,0
17.11.2017 14:00:00 6,4 1,1 22 12 36 19 WZW 1007,4 45 0,0
17.11.2017 13:00:00 6,3 1,4 22 12 36 19 WZW 1008,2 45 0,0
17.11.2017 12:00:00 6,1 1,2 22 12 36 19 WZW 1008,3 45 0,0
17.11.2017 11:00:00 5,4 1,5 18 10 40 21 W 1008,0 45 0,0
17.11.2017 10:00:00 4,7 1,7 22 12 40 21 W 1007,6 45 0,0
17.11.2017 09:00:00 4,0 2,0 14 8 32 18 W 1007,2 45 0,0
17.11.2017 08:00:00 3,8 2,2 14 8 29 16 W 1006,5 45 0,0
17.11.2017 07:00:00 4,1 2,5 18 10 32 18 W 1005,9 50 0,0
17.11.2017 06:00:00 4,3 3,0 18 10 32 18 WZW 1005,3 45 0,0
17.11.2017 05:00:00 5,1 3,6 22 12 36 19 WZW 1005,1 45 0,0
17.11.2017 04:00:00 6,4 4,7 18 10 32 18 WZW 1004,7 50 0,0
17.11.2017 03:00:00 7,3 6,2 18 10 47 25 ZW 1004,7 50 0,1
17.11.2017 02:00:00 7,7 7,1 25 14 47 25 ZW 1005,1 13 0,2
17.11.2017 01:00:00 7,3 6,9 22 12 40 21 ZZW 1006,1 8 1,0
17.11.2017 00:00:00 7,0 6,6 22 12 43 23 ZZW 1007,3 10 1,0
16.11.2017 23:00:00 6,8 6,4 22 12 36 19 ZZW 1008,8 11 0,8
16.11.2017 22:00:00 6,5 6,1 22 12 36 19 ZZW 1010,3 6 0,2
16.11.2017 21:00:00 5,8 5,1 22 12 32 18 ZZW 1011,7 12 0,1
16.11.2017 20:00:00 4,2 3,3 22 12 32 18 ZZW 1013,0 40 0,0
16.11.2017 19:00:00 5,1 3,9 14 8 22 12 ZZW 1014,0 30 0,0
16.11.2017 18:00:00 3,8 3,2 7 4 14 8 ZW 1014,9 26 0,0
16.11.2017 17:00:00 4,0 3,3 11 6 18 10 ZW 1015,8 28 0,0
16.11.2017 16:00:00 4,0 3,1 11 6 18 10 ZZW 1016,8 30 0,0
16.11.2017 15:00:00 4,4 2,3 11 6 14 8 ZZW 1017,4 45 0,0
16.11.2017 14:00:00 5,2 1,5 7 4 7 4 ZW 1018,0 45 0,0
16.11.2017 13:00:00 4,9 0,5 7 4 14 8 ZW 1018,6 45 0,0
16.11.2017 12:00:00 4,1 -0,1 11 6 14 8 ZW 1019,3 45 0,0
16.11.2017 11:00:00 3,6 -0,6 7 4 11 6 WZW 1019,4 45 0,0
16.11.2017 10:00:00 2,0 -0,7 7 4 14 8 W 1019,5 45 0,0
16.11.2017 09:00:00 0,6 -1,3 7 4 14 8 W 1019,5 45 0,0
16.11.2017 08:00:00 -0,5 -1,9 7 4 14 8 WNW 1019,4 50 0,0
16.11.2017 07:00:00 -0,2 -1,9 7 4 14 8 W 1018,9 50 0,0
16.11.2017 06:00:00 0,2 -1,7 7 4 18 10 WNW 1018,6 50 0,0
16.11.2017 05:00:00 0,6 -1,6 11 6 22 12 WNW 1018,2 45 0,0
16.11.2017 04:00:00 1,0 -1,2 11 6 22 12 WNW 1018,0 50 0,0
16.11.2017 03:00:00 0,8 -1,1 11 6 18 10 W 1018,0 50 0,0
16.11.2017 02:00:00 1,3 -0,9 11 6 22 12 WNW 1017,5 50 0,0
16.11.2017 01:00:00 1,3 -0,6 11 6 22 12 W 1017,0 50 0,0
16.11.2017 00:00:00 1,3 -0,6 11 6 22 12 W 1016,5 50 0,0
15.11.2017 23:00:00 1,5 -0,3 11 6 18 10 WNW 1016,0 50 0,0
15.11.2017 22:00:00 2,0 -0,3 11 6 22 12 WNW 1015,4 50 0,0
15.11.2017 21:00:00 2,0 0,1 7 4 18 10 W 1015,0 50 0,0
15.11.2017 20:00:00 2,5 0,2 11 6 25 14 WNW 1014,5 50 0,0
15.11.2017 19:00:00 2,9 0,6 14 8 25 14 W 1013,7 50 0,0
15.11.2017 18:00:00 3,3 1,2 14 8 25 14 W 1012,7 50 0,0
15.11.2017 17:00:00 3,4 1,4 11 6 25 14 W 1012,1 50 0,0
15.11.2017 16:00:00 4,8 2,2 14 8 29 16 WNW 1011,0 50 0,0
15.11.2017 15:00:00 6,1 3,6 18 10 32 18 W 1010,0 45 0,0
15.11.2017 14:00:00 5,9 4,2 14 8 25 14 W 1009,6 40 0,0
15.11.2017 13:00:00 5,3 4,0 14 8 22 12 WZW 1009,7 40 0,0
15.11.2017 12:00:00 4,4 3,7 11 6 25 14 ZW 1010,3 29 0,0
15.11.2017 11:00:00 - - - - - - - - - -
15.11.2017 10:00:00 3,0 2,1 11 6 18 10 WZW 1010,7 45 0,0
15.11.2017 09:00:00 0,9 0,8 11 6 14 8 WZW 1011,0 45 0,0
15.11.2017 08:00:00 -0,3 -0,4 7 4 18 10 W 1011,1 30 0,0
15.11.2017 07:00:00 -0,5 -0,8 11 6 22 12 W 1010,8 45 0,0
15.11.2017 06:00:00 -0,5 -0,8 11 6 22 12 W 1011,0 45 0,0
15.11.2017 05:00:00 -0,1 -0,5 11 6 25 14 W 1011,1 50 0,0
15.11.2017 04:00:00 0,2 -0,4 7 4 18 10 W 1011,1 45 0,0
15.11.2017 03:00:00 0,7 -0,2 7 4 22 12 W 1011,0 50 0,0
15.11.2017 02:00:00 1,4 0,5 11 6 22 12 W 1010,7 50 0,0
15.11.2017 01:00:00 1,9 1,0 11 6 25 14 WNW 1010,2 50 0,0
15.11.2017 00:00:00 2,0 1,6 7 4 14 8 W 1009,9 28 0,0
14.11.2017 23:00:00 1,9 1,5 11 6 14 8 W 1009,9 45 0,0
14.11.2017 22:00:00 1,8 1,7 11 6 18 10 WZW 1009,6 35 0,0
14.11.2017 21:00:00 1,3 1,2 7 4 14 8 WZW 1009,5 35 0,0
14.11.2017 20:00:00 1,3 1,2 7 4 14 8 WZW 1009,4 50 0,0
14.11.2017 19:00:00 1,3 1,0 4 2 7 4 WZW 1009,3 45 0,0
14.11.2017 18:00:00 1,3 1,0 7 4 11 6 WZW 1009,1 29 0,0
14.11.2017 17:00:00 1,2 0,8 7 4 14 8 W 1009,3 11 0,1
14.11.2017 16:00:00 1,4 0,7 7 4 18 10 W 1009,3 23 0,1
14.11.2017 15:00:00 2,6 0,8 7 4 14 8 WZW 1008,9 29 0,0
14.11.2017 14:00:00 1,9 0,1 4 2 11 6 ZW 1009,5 50 0,0
14.11.2017 13:00:00 1,5 -0,9 7 4 18 10 WZW 1010,5 50 0,0
14.11.2017 12:00:00 1,0 -2,1 7 4 18 10 WZW 1010,4 45 0,0
14.11.2017 11:00:00 0,5 -1,9 11 6 18 10 WZW 1010,6 45 0,0
14.11.2017 10:00:00 -0,8 -2,2 7 4 14 8 W 1010,8 45 0,0
14.11.2017 09:00:00 -2,4 -3,2 7 4 14 8 W 1011,0 45 0,0
14.11.2017 08:00:00 -3,5 -4,0 4 2 11 6 W 1011,0 50 0,0
14.11.2017 07:00:00 -3,5 -4,0 7 4 11 6 W 1010,8 50 0,0
14.11.2017 06:00:00 -3,6 -4,0 4 2 7 4 W 1011,0 50 0,0
14.11.2017 05:00:00 -3,4 -3,9 4 2 14 8 W 1011,0 50 0,0
14.11.2017 04:00:00 -2,9 -3,4 7 4 11 6 W 1011,0 50 0,0
14.11.2017 03:00:00 -2,2 -3,0 7 4 18 10 WNW 1011,0 50 0,0
14.11.2017 02:00:00 -1,6 -2,7 11 6 18 10 WNW 1010,9 50 0,0
14.11.2017 01:00:00 -1,4 -2,2 11 6 18 10 WNW 1010,9 50 0,0
14.11.2017 00:00:00 -1,1 -1,9 11 6 14 8 WNW 1010,9 50 0,0
13.11.2017 23:00:00 -1,3 -1,9 7 4 14 8 WNW 1010,9 50 0,0
13.11.2017 22:00:00 -1,4 -1,8 7 4 11 6 WNW 1011,0 50 0,0
13.11.2017 21:00:00 -0,7 -1,4 7 4 14 8 WNW 1010,7 50 0,0
13.11.2017 20:00:00 -0,9 -1,5 7 4 11 6 WNW 1010,8 45 0,0
13.11.2017 19:00:00 -0,6 -1,2 7 4 14 8 WNW 1010,5 50 0,0
13.11.2017 18:00:00 -0,3 -1,0 7 4 14 8 WNW 1010,1 50 0,0

tt = temperatuur
td = dauwpunt
ff = windsnelheid
fx = windstoten
dd = windrichting
ppp = luchtdruk
vv = zicht
rr = neerslag

Weerstations in de omgeving